TimeCDT,TemperatureF,Dew PointF,Humidity,Sea Level PressureIn,VisibilityMPH,Wind Direction,Wind SpeedMPH,Gust SpeedMPH,PrecipitationIn,Events,Conditions,WindDirDegrees,DateUTC
12:51 AM,84.0,64.0,51,29.65,10.0,SSE,9.2,-,N/A,,Clear,160,2013-05-21 05:51:00
1:51 AM,82.9,64.9,54,29.64,9.0,SSE,10.4,-,N/A,,Clear,160,2013-05-21 06:51:00
2:51 AM,81.0,68.0,65,29.63,10.0,South,16.1,25.3,N/A,,Clear,170,2013-05-21 07:51:00
3:51 AM,79.0,69.1,72,29.62,10.0,South,15.0,25.3,N/A,,Clear,170,2013-05-21 08:51:00
4:51 AM,77.0,68.0,74,29.63,10.0,South,10.4,18.4,N/A,,Clear,170,2013-05-21 09:51:00
5:51 AM,75.9,68.0,76,29.64,10.0,South,6.9,-,N/A,,Clear,170,2013-05-21 10:51:00
6:51 AM,75.0,68.0,79,29.65,8.0,South,9.2,-,N/A,,Clear,170,2013-05-21 11:51:00
7:51 AM,75.0,68.0,79,29.70,9.0,SW,12.7,-,N/A,,Partly Cloudy,230,2013-05-21 12:51:00
8:30 AM,77.0,68.0,74,29.78,8.0,SSW,16.1,-,N/A,,Mostly Cloudy,210,2013-05-21 13:30:00
8:51 AM,78.1,68.0,71,29.71,8.0,SSW,17.3,23.0,N/A,,Mostly Cloudy,200,2013-05-21 13:51:00
9:12 AM,78.8,68.0,69,29.79,7.0,SSW,17.3,23.0,N/A,,Mostly Cloudy,200,2013-05-21 14:12:00
9:51 AM,82.0,68.0,62,29.72,7.0,SSW,17.3,25.3,N/A,,Mostly Cloudy,200,2013-05-21 14:51:00
10:02 AM,80.6,68.0,65,29.80,7.0,South,20.7,28.8,N/A,,Scattered Clouds,190,2013-05-21 15:02:00
10:51 AM,84.0,66.9,56,29.73,8.0,SSW,17.3,25.3,N/A,,Mostly Cloudy,200,2013-05-21 15:51:00
11:51 AM,89.1,66.0,46,29.72,9.0,SSW,17.3,25.3,N/A,,Partly Cloudy,210,2013-05-21 16:51:00
12:49 PM,93.2,33.8,12,29.80,10.0,West,13.8,24.2,N/A,,Clear,280,2013-05-21 17:49:00
12:51 PM,93.9,33.1,12,29.71,10.0,West,15.0,24.2,N/A,,Clear,260,2013-05-21 17:51:00
1:51 PM,88.0,59.0,37,29.73,10.0,North,23.0,32.2,N/A,,Clear,10,2013-05-21 18:51:00
2:51 PM,84.9,52.0,32,29.77,10.0,NNE,21.9,32.2,N/A,,Clear,20,2013-05-21 19:51:00
3:51 PM,84.0,50.0,31,29.77,10.0,NE,15.0,24.2,N/A,,Clear,40,2013-05-21 20:51:00
4:51 PM,84.9,46.0,26,29.77,10.0,North,17.3,23.0,N/A,,Clear,10,2013-05-21 21:51:00
5:51 PM,86.0,44.1,23,29.75,10.0,North,18.4,-,N/A,,Clear,10,2013-05-21 22:51:00
6:51 PM,84.0,46.0,26,29.76,10.0,North,15.0,-,N/A,,Clear,10,2013-05-21 23:51:00
7:51 PM,81.0,45.0,28,29.78,10.0,North,11.5,-,N/A,,Clear,350,2013-05-22 00:51:00
8:51 PM,77.0,46.0,33,29.80,10.0,NE,9.2,-,N/A,,Clear,40,2013-05-22 01:51:00
9:51 PM,72.0,46.0,40,29.82,10.0,ENE,6.9,-,N/A,,Clear,70,2013-05-22 02:51:00
10:51 PM,69.1,46.0,44,29.84,10.0,ENE,6.9,-,N/A,,Clear,70,2013-05-22 03:51:00
11:51 PM,68.0,46.0,45,29.84,10.0,ENE,8.1,-,N/A,,Clear,70,2013-05-22 04:51:00